QPF
0.00 0.00 0.00 0.00 0.00 0.00 0.00 0.00 0.00 0.00 0.00 0.00 0.00 0.00 0.00 0.00 0.00 0.00 0.00 0.00 0.00 0.00 0.00 0.00 0.00 0.00 0.00 0.00 0.00 0.00 0.00 0.00 0.00 0.00 0.00 0.00 0.00 0.00 0.00 0.00 0.00 0.00 0.00 0.00
0.00 0.00 0.00 0.00 0.00 0.00 0.00 0.00 0.00 0.00 0.00 0.00 0.00 0.00 0.00 0.00 0.00 0.00 0.00 0.00 0.00 0.00 0.00 0.00 0.00 0.00 0.00 0.00 0.00 0.00 0.00 0.00 0.00 0.00 0.00 0.00 0.00 0.00 0.00 0.00 0.00 0.00 0.00 0.00
0.00 0.00 0.00 0.00 0.00 0.00 0.00 0.00 0.00 0.00 0.00 0.00 0.00 0.00 0.00 0.00 0.00 0.00 0.00 0.00 0.00 0.00 0.00 0.00 0.00 0.00 0.00 0.00 0.00 0.00 0.00 0.00 0.00 0.00 0.00 0.00 0.00 0.00 0.00 0.00 0.00 0.00 0.00 0.00
0.00 0.00 0.00 0.00 0.00 0.00 0.00 0.00 0.00 0.00 0.00 0.00 0.00 0.00 0.00 0.00 0.00 0.00 0.00 0.00 0.00 0.00 0.00 0.00 0.00 0.00 0.00 0.00 0.00 0.00 0.00 0.00 0.00 0.00 0.00 0.00 0.00 0.00 0.00 0.00 0.00 0.00 0.00 0.00
0.00 0.00 0.00 0.00 0.00 0.00 0.00 0.00 0.00 0.00 0.00 0.00 0.00 0.00 0.00 0.00 0.00 0.00 0.00 0.00 0.00 0.00 0.00 0.00 0.00 0.00 0.00 0.00 0.00 0.00 0.00 0.00 0.00 0.00 0.00 0.00 0.00 0.00 0.00 0.00 0.00 0.00 0.00 0.00
0.00 0.00 0.00 0.00 0.00 0.00 0.00 0.00 0.00 0.00 0.00 0.00 0.00 0.00 0.00 0.00 0.00 0.00 0.00 0.00 0.00 0.00 0.00 0.00 0.00 0.00 0.00 0.00 0.00 0.00 0.00 0.00 0.00 0.00 0.00 0.00 0.00 0.00 0.00 0.00 0.00 0.00 0.00 0.00
0.00 0.00 0.00 0.00 0.00 0.00 0.00 0.00 0.00 0.00 0.00 0.00 0.00 0.00 0.00 0.00 0.00 0.00 0.00 0.00 0.00 0.00 0.00 0.00 0.00 0.00 0.00 0.00 0.00 0.00 0.00 0.00 0.00 0.00 0.00 0.00 0.00 0.00 0.00 0.00 0.00 0.00 0.00 0.00
0.00 0.00 0.00 0.00 0.00 0.00 0.00 0.00 0.00 0.00 0.00 0.00 0.00 0.00 0.00 0.00 0.00 0.00 0.00 0.00 0.00 0.00 0.00 0.00 0.00 0.00 0.00 0.00 0.00 0.00 0.00 0.00 0.00 0.00 0.00 0.00 0.00 0.00 0.00 0.00 0.00 0.00 0.00 0.00
0.00 0.00 0.00 0.00 0.00 0.00 0.00 0.00 0.00 0.00 0.00 0.00 0.00 0.00 0.00 0.00 0.00 0.00 0.00 0.00 0.00 0.00 0.00 0.00 0.00 0.00 0.00 0.00 0.00 0.00 0.00 0.00 0.00 0.00 0.00 0.00 0.00 0.00 0.00 0.00 0.00 0.00 0.00 0.00
0.00 0.00 0.00 0.00 0.00 0.00 0.00 0.00 0.00 0.00 0.00 0.00 0.00 0.00 0.00 0.00 0.00 0.00 0.00 0.00 0.00 0.00 0.00 0.00 0.00 0.00 0.00 0.00 0.00 0.00 0.00 0.00 0.00 0.00 0.00 0.00 0.00 0.00 0.00 0.00 0.00 0.00 0.00 0.00
0.00 0.00 0.00 0.00 0.00 0.00 0.00 0.00 0.00 0.00 0.00 0.00 0.00 0.00 0.00 0.00 0.00 0.00 0.00 0.00 0.00 0.00 0.00 0.00 0.00 0.00 0.00 0.00 0.00 0.00 0.00 0.00 0.00 0.00 0.00 0.00 0.00 0.00 0.00 0.00 0.00 0.00 0.00 0.00
0.00 0.00 0.00 0.00 0.00 0.00 0.00 0.00 0.00 0.00 0.00 0.00 0.00 0.00 0.00 0.00 0.00 0.00 0.00 0.00 0.00 0.00 0.00 0.00 0.00 0.00 0.00 0.00 0.00 0.00 0.00 0.00 0.00 0.00 0.00 0.00 0.00 0.00 0.00 0.00 0.00 0.00 0.00 0.00
0.00 0.00 0.00 0.00 0.00 0.00 0.00 0.00 0.00 0.00 0.00 0.00 0.00 0.00 0.00 0.00 0.00 0.00 0.00 0.00 0.00 0.00 0.00 0.00 0.00 0.00 0.00 0.00 0.00 0.00 0.00 0.00 0.00 0.00 0.00 0.00 0.00 0.00 0.00 0.00 0.00 0.00 0.00 0.00
0.00 0.00 0.00 0.00 0.00 0.00 0.00 0.00 0.00 0.00 0.00 0.00 0.00 0.00 0.00 0.00 0.00 0.00 0.00 0.00 0.00 0.00 0.00 0.00 0.00 0.00 0.00 0.00 0.00 0.00 0.00 0.00 0.00 0.00 0.00 0.00 0.00 0.00 0.00 0.00 0.00 0.00 0.00 0.00
0.00 0.00 0.00 0.00 0.00 0.00 0.00 0.00 0.00 0.00 0.00 0.00 0.00 0.00 0.00 0.00 0.00 0.00 0.00 0.00 0.00 0.00 0.00 0.00 0.00 0.00 0.00 0.00 0.00 0.00 0.00 0.00 0.00 0.00 0.00 0.00 0.00 0.00 0.00 0.00 0.00 0.00 0.00 0.00
0.00 0.00 0.00 0.00 0.00 0.00 0.00 0.00 0.00 0.00 0.00 0.00 0.00 0.00 0.00 0.00 0.00 0.00 0.00 0.00 0.00 0.00 0.00 0.00 0.00 0.00 0.00 0.00 0.00 0.00 0.00 0.00 0.00 0.00 0.00 0.00 0.00 0.00 0.00 0.00 0.00 0.00 0.00 0.00
0.00 0.00 0.00 0.00 0.00 0.00 0.00 0.00 0.00 0.00 0.00 0.00 0.00 0.00 0.00 0.00 0.00 0.00 0.00 0.00 0.00 0.00 0.00 0.00 0.00 0.00 0.00 0.00 0.00 0.00 0.00 0.00 0.00 0.00 0.00 0.00 0.00 0.00 0.00 0.00 0.00 0.00 0.00 0.00
0.00 0.00 0.00 0.00 0.00 0.00 0.00 0.00 0.00 0.00 0.00 0.00 0.00 0.00 0.00 0.00 0.00 0.00 0.00 0.00 0.00 0.00 0.00 0.00 0.00 0.00 0.00 0.00 0.00 0.00 0.00 0.00 0.00 0.00 0.00 0.00 0.00 0.00 0.00 0.00 0.00 0.00 0.00 0.00
0.00 0.00 0.01 0.02 0.00 0.00 0.00 0.00 0.00 0.00 0.00 0.00 0.00 0.00 0.00 0.00 0.00 0.00 0.00 0.00 0.00 0.00 0.00 0.00 0.00 0.00 0.00 0.00 0.00 0.00 0.00 0.00 0.00 0.00 0.00 0.00 0.00 0.00 0.00 0.00 0.00 0.00 0.00 0.00
0.00 0.00 0.01 0.00 0.00 0.00 0.00 0.00 0.00 0.00 0.00 0.00 0.00 0.00 0.00 0.00 0.00 0.00 0.00 0.00 0.00 0.00 0.00 0.00 0.00 0.00 0.00 0.00 0.00 0.00 0.00 0.00 0.00 0.00 0.00 0.00 0.00 0.00 0.00 0.00 0.00 0.00 0.00 0.00
0.00 0.00 0.00 0.00 0.00 0.00 0.00 0.00 0.00 0.00 0.00 0.00 0.01 0.00 0.00 0.00 0.00 0.00 0.00 0.00 0.00 0.00 0.00 0.00 0.00 0.00 0.00 0.00 0.00 0.00 0.00 0.00 0.00 0.00 0.00 0.00 0.00 0.00 0.00 0.00 0.00 0.00 0.00 0.00
0.00 0.00 0.00 0.00 0.00 0.00 0.00 0.00 0.01 0.01 0.01 0.02 0.01 0.00 0.00 0.00 0.00 0.00 0.00 0.00 0.00 0.00 0.00 0.00 0.00 0.00 0.00 0.00 0.00 0.00 0.00 0.00 0.00 0.00 0.00 0.00 0.00 0.00 0.00 0.00 0.00 0.00 0.00 0.00
0.00 0.00 0.00 0.00 0.00 0.00 0.00 0.00 0.00 0.01 0.00 0.00 0.00 0.00 0.00 0.00 0.01 0.01 0.01 0.01 0.01 0.01 0.01 0.00 0.00 0.00 0.00 0.00 0.00 0.00 0.00 0.00 0.00 0.00 0.00 0.00 0.00 0.00 0.00 0.00 0.00 0.00 0.00 0.00
0.00 0.00 0.00 0.00 0.00 0.00 0.00 0.00 0.00 0.00 0.00 0.00 0.00 0.00 0.00 0.00 0.01 0.01 0.01 0.01 0.01 0.01 0.01 0.00 0.00 0.00 0.00 0.00 0.00 0.00 0.00 0.00 0.00 0.00 0.00 0.00 0.00 0.00 0.00 0.00 0.00 0.00 0.00 0.00
0.00 0.00 0.00 0.00 0.00 0.00 0.00 0.00 0.00 0.00 0.00 0.00 0.00 0.00 0.00 0.00 0.00 0.00 0.01 0.01 0.01 0.00 0.00 0.00 0.00 0.00 0.00 0.00 0.00 0.00 0.00 0.00 0.00 0.00 0.00 0.00 0.00 0.00 0.00 0.00 0.00 0.00 0.00 0.00
0.00 0.00 0.00 0.00 0.00 0.00 0.00 0.00 0.00 0.00 0.00 0.00 0.00 0.00 0.00 0.00 0.00 0.00 0.00 0.00 0.00 0.00 0.00 0.00 0.00 0.00 0.00 0.00 0.00 0.00 0.00 0.00 0.00 0.00 0.00 0.00 0.00 0.00 0.00 0.00 0.00 0.00 0.00 0.00
0.00 0.00 0.00 0.00 0.00 0.00 0.00 0.00 0.00 0.00 0.00 0.00 0.00 0.00 0.00 0.00 0.00 0.00 0.00 0.00 0.00 0.00 0.00 0.00 0.00 0.00 0.00 0.00 0.00 0.00 0.00 0.00 0.00 0.00 0.00 0.00 0.00 0.00 0.00 0.00 0.00 0.00 0.00 0.00
MSLP
1022.52 1022.00 1021.44 1020.65 1019.88 1019.23 1019.07 1020.02 1020.40 1019.28 1018.91 1019.87 1021.85 1022.80 1022.26 1021.82 1021.81 1021.43 1021.37 1021.29 1021.47 1021.76 1022.01 1022.51 1022.85 1023.03 1022.92 1022.76 1022.85 1023.31 1023.91 1025.10 1026.27 1026.21 1025.82 1025.77 1025.94 1026.36 1027.05 1028.45 1029.22 1029.43 1028.62 1024.94
1022.67 1022.10 1021.48 1020.88 1020.23 1019.80 1020.03 1020.86 1020.66 1019.64 1019.43 1021.22 1022.90 1022.79 1022.50 1022.15 1021.89 1021.66 1021.41 1021.59 1021.59 1021.59 1022.08 1022.65 1022.96 1023.15 1023.13 1023.02 1023.20 1023.55 1023.97 1025.14 1026.21 1026.33 1026.27 1025.93 1025.93 1026.06 1026.54 1027.44 1028.19 1028.44 1028.11 1024.29
1022.78 1022.36 1021.60 1020.79 1020.19 1019.81 1020.01 1021.03 1021.49 1020.91 1021.02 1022.29 1022.38 1022.68 1022.68 1022.45 1022.05 1021.85 1021.63 1021.65 1021.64 1021.90 1022.29 1022.56 1023.15 1023.42 1023.35 1023.25 1023.40 1023.55 1023.95 1024.95 1025.57 1025.78 1025.37 1025.31 1025.75 1025.65 1026.02 1026.73 1027.68 1027.30 1025.64 1023.74
1023.01 1022.46 1021.88 1020.95 1020.05 1019.43 1020.09 1021.64 1022.82 1022.65 1022.86 1022.88 1022.50 1022.36 1022.44 1022.38 1022.13 1021.91 1021.79 1021.91 1021.94 1022.09 1022.51 1022.87 1023.36 1023.73 1023.72 1023.72 1023.69 1023.92 1024.39 1025.12 1025.34 1025.16 1024.96 1024.93 1024.81 1024.88 1025.26 1025.77 1025.49 1025.48 1023.82 1023.04
1023.42 1022.71 1022.09 1021.34 1020.18 1019.57 1020.73 1022.11 1022.61 1022.85 1022.85 1022.78 1022.77 1022.65 1022.28 1022.30 1022.24 1022.07 1022.06 1021.97 1021.95 1022.22 1022.69 1022.99 1023.23 1023.67 1024.03 1024.05 1024.44 1024.59 1024.93 1025.29 1025.45 1025.04 1024.45 1024.46 1024.17 1023.78 1023.88 1024.03 1023.93 1023.63 1023.24 1021.67
1023.65 1023.17 1022.41 1021.75 1020.76 1019.80 1021.41 1022.31 1022.41 1022.64 1023.02 1022.73 1022.70 1022.65 1022.44 1022.01 1021.99 1022.20 1021.96 1022.08 1022.33 1022.56 1022.59 1022.73 1023.05 1023.40 1023.83 1024.05 1024.58 1025.22 1025.61 1025.97 1026.21 1025.59 1024.84 1024.13 1023.01 1021.67 1021.87 1022.16 1021.96 1021.97 1022.16 1020.47
1023.86 1023.33 1022.90 1022.37 1021.76 1021.38 1021.78 1022.90 1023.00 1022.84 1023.63 1023.27 1022.52 1021.88 1022.00 1022.40 1022.30 1022.35 1022.41 1022.39 1022.59 1022.95 1022.77 1023.05 1023.34 1023.69 1024.02 1024.41 1024.98 1025.09 1025.79 1026.29 1026.53 1026.33 1025.41 1024.04 1021.10 1020.41 1020.32 1020.75 1020.68 1020.70 1020.57 1020.21
1023.76 1023.69 1023.39 1022.94 1022.36 1022.15 1022.64 1022.80 1022.98 1023.25 1023.19 1022.82 1022.53 1022.34 1022.12 1022.21 1022.62 1022.88 1023.01 1023.17 1023.18 1023.12 1023.32 1023.97 1024.41 1024.73 1024.86 1025.14 1025.70 1025.76 1025.85 1026.37 1026.87 1026.69 1025.75 1023.10 1020.67 1019.98 1019.82 1019.96 1019.91 1019.76 1019.98 1020.00
1023.79 1023.65 1023.74 1023.43 1023.04 1022.59 1022.94 1023.30 1023.32 1023.30 1023.18 1022.91 1022.57 1022.64 1022.57 1022.70 1022.76 1023.39 1023.51 1023.57 1023.60 1023.59 1023.96 1024.53 1024.89 1024.94 1024.82 1025.53 1026.00 1026.24 1026.46 1026.47 1027.03 1026.93 1026.00 1023.31 1020.66 1019.76 1019.45 1019.49 1019.78 1019.67 1019.76 1019.98
1023.81 1023.61 1023.41 1023.57 1023.37 1022.89 1023.33 1023.53 1023.57 1023.42 1023.68 1022.94 1022.32 1022.44 1022.87 1022.81 1023.30 1023.28 1023.43 1023.95 1024.12 1024.34 1024.69 1025.04 1025.17 1024.83 1024.53 1024.93 1025.37 1026.06 1026.59 1027.01 1026.82 1026.85 1025.78 1022.63 1020.53 1019.86 1019.61 1019.97 1020.65 1019.79 1019.86 1020.20
1023.99 1023.79 1023.62 1023.47 1023.40 1023.18 1023.18 1023.80 1023.74 1023.69 1023.86 1023.17 1022.83 1022.49 1022.40 1022.87 1023.21 1023.65 1024.12 1024.05 1024.49 1024.98 1025.40 1025.29 1024.78 1024.58 1024.13 1024.41 1024.57 1024.85 1025.11 1025.69 1025.89 1025.95 1024.93 1022.32 1020.26 1020.07 1020.01 1020.19 1020.01 1020.12 1020.08 1020.13
1023.89 1023.90 1023.84 1023.78 1023.42 1023.25 1023.15 1023.61 1023.88 1024.00 1024.08 1023.68 1022.97 1022.85 1022.94 1022.78 1023.03 1023.28 1023.65 1023.93 1023.54 1023.60 1024.37 1024.89 1024.76 1024.38 1024.09 1024.09 1024.28 1023.96 1023.99 1023.21 1023.52 1023.43 1021.74 1020.28 1019.85 1019.65 1019.70 1019.92 1020.19 1020.18 1020.37 1020.47
1023.72 1023.60 1023.58 1023.76 1023.70 1023.38 1023.31 1023.86 1023.83 1024.05 1024.50 1023.90 1023.53 1023.18 1023.15 1023.07 1023.12 1023.45 1023.79 1023.60 1023.23 1023.54 1023.35 1023.91 1024.30 1024.48 1023.97 1023.81 1023.43 1023.08 1022.73 1022.43 1022.62 1022.34 1020.73 1020.37 1020.36 1019.99 1020.00 1020.31 1020.50 1020.63 1020.74 1020.70
1023.24 1023.41 1023.47 1023.74 1023.62 1023.44 1023.15 1023.94 1023.95 1023.89 1024.12 1024.60 1023.86 1023.41 1023.44 1023.23 1023.27 1023.06 1023.45 1023.48 1023.45 1023.45 1023.61 1024.01 1024.22 1024.11 1023.54 1023.41 1022.88 1022.71 1022.04 1022.15 1021.94 1021.70 1020.81 1020.33 1020.38 1020.78 1020.97 1020.96 1021.08 1021.12 1021.00 1020.95
1023.64 1023.40 1023.55 1023.62 1023.72 1023.42 1023.44 1023.73 1023.73 1023.78 1023.69 1024.20 1024.00 1023.35 1023.66 1023.43 1023.26 1023.11 1023.36 1023.70 1023.93 1024.19 1024.34 1024.25 1024.10 1023.68 1023.75 1023.25 1023.31 1022.73 1021.48 1021.12 1021.45 1021.31 1021.20 1021.04 1021.12 1021.20 1021.17 1021.32 1021.44 1021.35 1021.22 1020.96
1023.38 1023.62 1023.49 1023.50 1023.34 1023.22 1023.97 1023.80 1023.78 1023.53 1023.51 1023.96 1024.20 1023.85 1023.97 1023.87 1023.22 1023.33 1023.49 1023.95 1024.14 1024.42 1024.48 1024.33 1023.69 1023.05 1023.18 1023.50 1023.16 1021.61 1021.43 1021.20 1021.02 1021.19 1021.24 1021.21 1021.35 1021.64 1021.74 1021.73 1021.74 1021.53 1021.33 1021.21
1023.35 1023.31 1023.26 1023.18 1023.00 1023.35 1023.85 1024.18 1023.99 1023.51 1023.42 1023.97 1024.14 1024.04 1024.01 1024.15 1023.74 1023.94 1024.14 1024.23 1024.26 1024.48 1024.55 1024.45 1023.94 1023.43 1023.11 1023.26 1022.99 1021.93 1021.65 1021.64 1021.71 1021.59 1021.47 1021.66 1021.77 1022.15 1022.27 1022.20 1021.92 1021.69 1021.55 1021.41
1023.60 1023.47 1023.21 1023.13 1022.93 1023.27 1023.62 1023.74 1023.59 1023.66 1023.86 1024.17 1024.58 1024.37 1024.30 1024.07 1024.22 1024.54 1024.64 1024.89 1024.73 1024.63 1024.47 1024.27 1023.97 1023.68 1023.42 1023.02 1022.31 1022.23 1022.21 1022.21 1022.25 1022.25 1022.17 1022.34 1022.52 1022.67 1022.59 1022.31 1022.02 1021.76 1021.52 1021.15
1023.08 1022.87 1022.78 1023.21 1023.44 1023.65 1023.73 1023.68 1023.72 1023.68 1024.04 1024.01 1024.46 1024.65 1024.66 1024.57 1024.32 1024.43 1024.87 1024.88 1025.02 1024.85 1024.72 1024.35 1024.23 1023.77 1023.04 1022.37 1022.43 1022.56 1022.65 1022.82 1022.88 1022.76 1022.71 1022.70 1022.70 1022.71 1022.60 1022.47 1022.29 1022.08 1021.61 1021.17
1023.05 1023.17 1023.16 1023.41 1023.90 1023.76 1023.67 1023.85 1024.17 1023.90 1024.13 1024.30 1023.98 1024.15 1024.53 1024.55 1024.70 1024.78 1025.00 1024.97 1024.97 1024.82 1024.51 1024.27 1024.07 1023.33 1022.99 1022.83 1022.78 1022.87 1022.95 1022.99 1023.03 1023.07 1023.02 1022.97 1022.86 1022.65 1022.36 1022.03 1021.82 1021.60 1021.19 1020.65
1023.42 1023.61 1023.90 1023.99 1023.74 1024.02 1024.44 1024.05 1024.54 1024.69 1024.49 1024.32 1024.20 1024.58 1024.71 1024.78 1024.90 1024.64 1024.65 1024.97 1024.85 1024.77 1024.64 1024.57 1023.93 1023.37 1023.14 1023.12 1023.06 1023.05 1023.00 1023.02 1022.93 1022.83 1022.77 1022.71 1022.67 1022.44 1022.28 1021.87 1021.56 1021.29 1020.97 1020.59
1023.65 1023.87 1024.33 1024.46 1024.64 1024.94 1025.32 1024.88 1025.00 1024.87 1024.70 1024.84 1024.78 1024.79 1024.95 1025.10 1024.93 1024.76 1024.92 1024.87 1025.18 1024.78 1024.66 1024.71 1023.83 1023.31 1023.25 1023.36 1023.32 1023.19 1023.14 1023.08 1023.03 1022.93 1022.74 1022.42 1022.31 1022.16 1021.96 1021.66 1021.22 1020.96 1020.71 1020.22
1024.07 1024.52 1025.23 1025.80 1026.20 1026.46 1026.43 1025.78 1025.39 1025.16 1025.31 1025.27 1025.33 1025.52 1025.38 1025.29 1025.26 1025.02 1024.96 1025.03 1025.21 1024.99 1024.91 1024.34 1023.64 1023.26 1023.30 1023.36 1023.41 1023.28 1023.00 1022.97 1022.93 1022.69 1022.50 1022.29 1022.09 1021.77 1021.52 1021.17 1020.71 1020.41 1020.09 1019.57
1025.10 1026.07 1027.34 1027.28 1027.32 1026.62 1025.93 1025.72 1025.56 1025.53 1025.58 1025.58 1025.71 1025.98 1025.84 1025.60 1025.63 1025.41 1025.23 1025.11 1025.19 1025.17 1024.83 1024.25 1023.58 1023.28 1023.35 1023.43 1023.47 1023.44 1023.08 1022.71 1022.68 1022.51 1022.19 1021.88 1021.61 1021.29 1020.90 1020.58 1020.18 1019.96 1019.52 1018.88
1026.16 1027.19 1027.79 1027.52 1026.52 1026.27 1026.00 1025.86 1026.08 1025.65 1025.56 1026.08 1026.47 1026.67 1026.63 1026.48 1026.34 1025.77 1025.73 1025.55 1025.19 1024.70 1024.32 1024.06 1023.71 1023.67 1023.47 1023.17 1023.14 1022.99 1022.73 1022.43 1022.27 1021.97 1021.75 1021.36 1021.04 1020.76 1020.28 1019.72 1019.40 1019.02 1018.59 1018.20
1026.75 1027.18 1027.39 1027.05 1027.10 1026.69 1026.22 1026.14 1026.04 1025.76 1026.04 1026.52 1027.12 1027.88 1028.21 1027.75 1027.17 1026.71 1026.08 1025.67 1025.05 1024.42 1023.98 1023.57 1023.35 1023.26 1023.05 1022.93 1022.61 1022.27 1022.00 1021.86 1021.68 1021.40 1021.06 1020.64 1020.29 1019.90 1019.41 1018.83 1018.53 1018.06 1017.69 1017.36
1027.18 1026.99 1026.54 1026.30 1026.12 1026.14 1025.79 1025.73 1025.78 1025.74 1026.53 1027.60 1028.11 1028.90 1028.65 1028.35 1028.01 1027.09 1026.00 1025.28 1024.22 1023.70 1023.32 1022.98 1022.89 1022.79 1022.56 1022.17 1021.88 1021.63 1021.36 1021.12 1020.80 1020.50 1020.14 1019.73 1019.14 1018.86 1018.77 1018.38 1017.31 1016.95 1016.60 1016.33
Thickness
5582 5584 5587 5589 5591 5592 5591 5579 5568 5583 5583 5559 5528 5533 5549 5552 5546 5545 5542 5542 5540 5543 5543 5539 5534 5536 5542 5545 5548 5548 5545 5519 5493 5536 5541 5538 5539 5540 5532 5503 5524 5484 5476 5526
5580 5582 5585 5588 5589 5589 5584 5575 5573 5582 5581 5545 5534 5553 5551 5551 5551 5547 5548 5544 5545 5546 5543 5540 5537 5534 5540 5540 5541 5542 5543 5519 5485 5517 5528 5534 5537 5536 5537 5523 5507 5516 5489 5524
5576 5578 5582 5587 5590 5590 5586 5575 5558 5570 5563 5549 5549 5552 5552 5549 5550 5551 5552 5549 5549 5547 5544 5541 5534 5529 5540 5541 5540 5543 5540 5526 5520 5504 5534 5527 5523 5529 5530 5522 5486 5508 5504 5520
5570 5574 5577 5583 5590 5592 5585 5567 5558 5558 5557 5554 5559 5558 5556 5551 5551 5555 5554 5552 5551 5550 5545 5544 5535 5524 5533 5537 5540 5539 5532 5522 5529 5529 5532 5534 5538 5539 5529 5513 5533 5529 5549 5536
5564 5569 5573 5577 5585 5589 5577 5568 5563 5553 5550 5557 5562 5553 5558 5553 5555 5552 5554 5554 5553 5552 5547 5544 5534 5533 5530 5532 5529 5533 5525 5526 5527 5525 5537 5531 5531 5534 5537 5539 5543 5541 5545 5555
5557 5561 5567 5571 5577 5586 5569 5561 5560 5559 5550 5552 5553 5549 5557 5558 5554 5555 5556 5556 5549 5549 5547 5544 5542 5538 5532 5535 5527 5520 5520 5516 5511 5516 5524 5528 5536 5543 5545 5542 5545 5550 5541 5562
5548 5553 5556 5561 5565 5568 5566 5555 5552 5556 5549 5544 5553 5560 5559 5553 5555 5547 5551 5552 5548 5544 5544 5543 5539 5536 5538 5535 5516 5521 5516 5514 5508 5503 5512 5527 5563 5557 5562 5550 5552 5547 5551 5553
5542 5543 5544 5548 5554 5555 5553 5551 5550 5546 5546 5546 5553 5552 5550 5547 5544 5545 5543 5538 5536 5535 5537 5521 5521 5513 5524 5518 5506 5512 5509 5506 5505 5503 5496 5526 5563 5564 5557 5553 5563 5557 5546 5550
5533 5535 5533 5536 5540 5544 5545 5541 5542 5539 5543 5545 5548 5544 5543 5536 5532 5531 5531 5530 5527 5530 5522 5522 5525 5517 5525 5513 5509 5502 5500 5499 5497 5493 5495 5528 5559 5559 5557 5556 5541 5553 5547 5550
5523 5525 5529 5526 5527 5533 5532 5530 5531 5531 5530 5535 5544 5536 5532 5531 5526 5526 5524 5521 5519 5517 5509 5515 5501 5518 5519 5516 5506 5494 5496 5488 5489 5483 5485 5511 5535 5540 5548 5546 5534 5547 5544 5538
5509 5513 5516 5518 5517 5519 5523 5519 5519 5520 5515 5520 5529 5532 5531 5524 5519 5515 5512 5517 5504 5497 5504 5505 5510 5508 5514 5515 5505 5493 5493 5485 5481 5480 5480 5495 5534 5537 5543 5537 5534 5531 5529 5529
5498 5499 5501 5502 5506 5508 5511 5509 5506 5507 5508 5513 5515 5516 5515 5517 5515 5509 5503 5511 5507 5506 5499 5491 5495 5508 5489 5504 5512 5502 5507 5512 5502 5504 5513 5530 5530 5536 5535 5528 5524 5525 5520 5516
5487 5489 5491 5491 5492 5496 5499 5496 5500 5497 5492 5497 5501 5504 5504 5504 5503 5497 5497 5495 5503 5499 5498 5491 5490 5497 5492 5497 5498 5510 5510 5505 5506 5510 5527 5516 5517 5521 5521 5517 5513 5509 5505 5502
5478 5478 5479 5478 5481 5483 5489 5483 5484 5486 5485 5480 5489 5490 5491 5492 5492 5493 5486 5487 5486 5486 5485 5483 5483 5488 5488 5488 5497 5497 5503 5495 5496 5494 5505 5513 5507 5499 5496 5497 5497 5491 5490 5490
5461 5466 5466 5466 5466 5471 5473 5472 5474 5473 5476 5473 5474 5481 5478 5479 5481 5482 5479 5475 5472 5467 5469 5470 5473 5472 5471 5470 5468 5475 5488 5493 5487 5491 5491 5493 5491 5484 5481 5478 5475 5474 5476 5476
5450 5449 5452 5453 5457 5460 5454 5459 5460 5462 5462 5460 5457 5464 5464 5465 5470 5468 5467 5460 5459 5455 5454 5455 5459 5468 5468 5455 5460 5482 5478 5479 5479 5479 5473 5474 5475 5467 5463 5463 5460 5459 5461 5460
5432 5436 5439 5442 5446 5447 5443 5443 5445 5447 5448 5448 5445 5447 5451 5450 5454 5449 5447 5446 5446 5444 5443 5441 5448 5453 5451 5442 5447 5467 5463 5459 5458 5457 5459 5457 5450 5446 5443 5443 5445 5445 5445 5444
5414 5417 5422 5425 5429 5429 5430 5431 5432 5430 5430 5429 5417 5428 5433 5439 5434 5433 5427 5427 5426 5428 5429 5429 5434 5434 5432 5436 5450 5446 5440 5438 5436 5434 5434 5433 5429 5425 5426 5427 5428 5429 5429 5430
5402 5407 5409 5409 5409 5410 5411 5413 5414 5415 5416 5414 5421 5412 5427 5416 5418 5417 5414 5412 5413 5411 5414 5416 5418 5421 5428 5437 5430 5423 5419 5416 5414 5416 5415 5413 5413 5411 5410 5409 5410 5409 5411 5412
5387 5389 5392 5392 5390 5390 5394 5393 5393 5397 5397 5398 5409 5406 5402 5404 5400 5401 5401 5395 5400 5405 5409 5399 5403 5417 5410 5408 5407 5404 5401 5399 5399 5397 5396 5396 5396 5396 5396 5396 5394 5393 5394 5395
5369 5368 5371 5372 5374 5373 5372 5378 5378 5378 5382 5387 5390 5385 5379 5382 5380 5387 5385 5368 5383 5388 5387 5386 5397 5394 5392 5392 5390 5389 5389 5388 5388 5387 5385 5383 5380 5378 5377 5378 5378 5377 5376 5375
5353 5353 5351 5352 5350 5346 5354 5356 5359 5365 5373 5366 5372 5370 5368 5366 5363 5364 5366 5363 5363 5373 5365 5371 5380 5381 5378 5373 5373 5373 5371 5371 5370 5369 5368 5368 5366 5363 5361 5361 5362 5360 5360 5360
5336 5334 5325 5323 5316 5321 5309 5314 5342 5351 5337 5337 5339 5341 5350 5348 5347 5352 5353 5345 5342 5345 5339 5362 5360 5364 5362 5356 5355 5356 5357 5356 5355 5354 5353 5351 5349 5349 5347 5347 5348 5347 5347 5347
5314 5295 5299 5293 5279 5304 5315 5319 5322 5324 5324 5324 5326 5323 5328 5336 5331 5332 5338 5339 5333 5335 5345 5342 5331 5348 5348 5342 5338 5337 5339 5340 5338 5337 5338 5338 5336 5336 5335 5334 5333 5329 5330 5333
5288 5282 5281 5278 5303 5308 5313 5314 5303 5310 5312 5312 5312 5309 5314 5308 5312 5328 5322 5312 5324 5340 5326 5325 5328 5326 5326 5326 5326 5324 5323 5325 5325 5325 5322 5323 5322 5320 5323 5323 5320 5317 5316 5315
5273 5268 5282 5284 5277 5284 5300 5289 5291 5298 5304 5298 5296 5280 5270 5282 5297 5309 5310 5310 5296 5304 5309 5315 5312 5313 5309 5313 5315 5315 5313 5309 5310 5311 5309 5310 5308 5307 5308 5311 5307 5304 5302 5300
5270 5259 5280 5281 5272 5280 5285 5293 5295 5296 5287 5270 5257 5259 5275 5260 5245 5295 5285 5284 5299 5302 5300 5301 5304 5303 5303 5303 5303 5301 5299 5300 5299 5298 5298 5298 5299 5296 5291 5290 5300 5293 5292 5289